When you browse on this site, cookies collect data to enhance your experience and personalize the content and advertising you see.
Visit our Privacy Policy to learn more. By continuing to use the site, you agree to this use of cookies and data.
  • en Suisse
  • Liste des pays
  • À 7 jours
  • Température de l'eau
  • Carte satellitaire
  • Carte météo
  • Widgets météo
  • user-avatar
    Se connecter

    Météo par heure à Klagenfurt

    Ce jour, 27 Mai, Lundi

    Heure Température Précipitation Vent Pression Humidité
    00:00 +11°C° 0.2 mm 0 m/s 688 mmHg 91%
    01:00 +12°C° 0.2 mm 1 m/s 688 mmHg 91%
    02:00 +11°C° 0.5 mm 0 m/s 687 mmHg 92%
    03:00 +11°C° 0.5 mm 0 m/s 687 mmHg 93%
    04:00 +10°C° 0.5 mm 0 m/s 687 mmHg 93%
    05:00 +11°C° 0.5 mm 0 m/s 687 mmHg 92%
    06:00 +11°C° 0.5 mm 0 m/s 687 mmHg 91%
    07:00 +12°C° 0.5 mm 0 m/s 687 mmHg 90%
    08:00 +13°C° 0.2 mm 0 m/s 687 mmHg 87%
    09:00 +14°C° 0.2 mm 0 m/s 687 mmHg 85%
    10:00 +14°C° 0.2 mm 0 m/s 687 mmHg 83%
    11:00 +15°C° 1 mm 1 m/s 686 mmHg 85%
    12:00 +15°C° 1 mm 1 m/s 686 mmHg 88%
    13:00 +15°C° 1 mm 1 m/s 686 mmHg 90%
    14:00 +14°C° 1.6 mm 1 m/s 685 mmHg 92%
    15:00 +13°C° 1.6 mm 1 m/s 685 mmHg 94%
    16:00 +12°C° 1.6 mm 0 m/s 685 mmHg 95%
    17:00 +11°C° 1.1 mm 0 m/s 684 mmHg 96%
    18:00 +11°C° 1.1 mm 0 m/s 684 mmHg 97%
    19:00 +11°C° 1.1 mm 0 m/s 684 mmHg 97%
    20:00 +10°C° 0.3 mm 0 m/s 683 mmHg 97%
    21:00 +10°C° 0.3 mm 0 m/s 683 mmHg 97%
    22:00 +9°C° 0.3 mm 0 m/s 683 mmHg 97%
    23:00 +9°C° 0.6 mm 0 m/s 683 mmHg 97%

    Demain, 28 Mai, Mardi

    Heure Température Précipitation Vent Pression Humidité
    00:00 +10°C° 0.6 mm 0 m/s 683 mmHg 97%
    01:00 +10°C° 0.6 mm 0 m/s 682 mmHg 97%
    02:00 +10°C° 0.7 mm 0 m/s 682 mmHg 97%
    03:00 +9°C° 0.7 mm 0 m/s 682 mmHg 97%
    04:00 +9°C° 0.7 mm 0 m/s 682 mmHg 97%
    05:00 +10°C° 1.1 mm 0 m/s 681 mmHg 97%
    06:00 +10°C° 1.1 mm 0 m/s 681 mmHg 96%
    07:00 +10°C° 1.1 mm 0 m/s 681 mmHg 96%
    08:00 +11°C° 1.3 mm 0 m/s 682 mmHg 93%
    09:00 +12°C° 1.3 mm 0 m/s 682 mmHg 91%
    10:00 +12°C° 1.3 mm 0 m/s 682 mmHg 89%
    11:00 +14°C° 0.8 mm 1 m/s 682 mmHg 86%
    12:00 +14°C° 0.8 mm 1 m/s 682 mmHg 83%
    13:00 +15°C° 0.8 mm 1 m/s 682 mmHg 80%
    14:00 +16°C° 0.2 mm 1 m/s 682 mmHg 76%
    15:00 +18°C° 0.2 mm 1 m/s 682 mmHg 72%
    16:00 +18°C° 0.2 mm 1 m/s 682 mmHg 68%
    17:00 +16°C° 0.6 mm 1 m/s 683 mmHg 75%
    18:00 +15°C° 0.6 mm 1 m/s 683 mmHg 81%
    19:00 +13°C° 0.6 mm 1 m/s 683 mmHg 88%
    20:00 +12°C° 1.6 mm 1 m/s 683 mmHg 90%
    21:00 +11°C° 1.6 mm 1 m/s 684 mmHg 93%
    22:00 +11°C° 1.6 mm 1 m/s 684 mmHg 96%
    23:00 +10°C° 2.3 mm 1 m/s 684 mmHg 96%

    Après-demain, 29 Mai, Mercredi

    Heure Température Précipitation Vent Pression Humidité
    00:00 +10°C° 2.3 mm 1 m/s 684 mmHg 96%
    01:00 +9°C° 2.3 mm 1 m/s 684 mmHg 97%
    02:00 +9°C° 2 mm 1 m/s 684 mmHg 97%
    03:00 +8°C° 2 mm 1 m/s 685 mmHg 97%
    04:00 +8°C° 2 mm 1 m/s 685 mmHg 97%
    05:00 +8°C° 1.1 mm 1 m/s 685 mmHg 96%
    06:00 +8°C° 1.1 mm 1 m/s 685 mmHg 96%
    07:00 +8°C° 1.1 mm 1 m/s 686 mmHg 95%
    08:00 +9°C° 0.6 mm 1 m/s 686 mmHg 94%
    09:00 +9°C° 0.6 mm 1 m/s 687 mmHg 93%
    10:00 +10°C° 0.6 mm 1 m/s 687 mmHg 91%
    11:00 +11°C° 0.4 mm 1 m/s 688 mmHg 86%
    12:00 +12°C° 0.4 mm 1 m/s 688 mmHg 81%
    13:00 +13°C° 0.4 mm 1 m/s 689 mmHg 76%
    14:00 +13°C° 0.5 mm 1 m/s 689 mmHg 77%
    15:00 +13°C° 0.5 mm 1 m/s 689 mmHg 79%
    16:00 +13°C° 0.5 mm 1 m/s 689 mmHg 80%
    17:00 +12°C° 0.3 mm 1 m/s 689 mmHg 84%
    18:00 +11°C° 0.3 mm 1 m/s 689 mmHg 88%
    19:00 +9°C° 0.3 mm 0 m/s 689 mmHg 92%
    20:00 +9°C° 0.4 mm 0 m/s 689 mmHg 93%
    21:00 +8°C° 0.4 mm 0 m/s 690 mmHg 94%
    22:00 +8°C° 0.4 mm 0 m/s 690 mmHg 95%
    23:00 +8°C° 0.2 mm 0 m/s 690 mmHg 95%

    30 Mai, Jeudi

    Heure Température Précipitation Vent Pression Humidité
    00:00 +7°C° 0.2 mm 0 m/s 690 mmHg 95%
    01:00 +8°C° 0.2 mm 1 m/s 690 mmHg 95%
    02:00 +8°C° 0.1 mm 1 m/s 690 mmHg 95%
    03:00 +8°C° 0.1 mm 1 m/s 690 mmHg 94%
    04:00 +7°C° 0.1 mm 1 m/s 690 mmHg 94%
    05:00 +9°C° 0.1 mm 1 m/s 691 mmHg 91%
    06:00 +10°C° 0.1 mm 1 m/s 691 mmHg 89%
    07:00 +11°C° 0.1 mm 1 m/s 692 mmHg 86%
    08:00 +13°C° 0 mm 1 m/s 692 mmHg 74%
    09:00 +16°C° 0 mm 1 m/s 693 mmHg 62%
    10:00 +19°C° 0 mm 1 m/s 693 mmHg 50%
    11:00 +20°C° 0.1 mm 1 m/s 693 mmHg 47%
    12:00 +22°C° 0.1 mm 1 m/s 694 mmHg 45%
    13:00 +21°C° 0.1 mm 0 m/s 694 mmHg 42%
    14:00 +22°C° 0.3 mm 1 m/s 693 mmHg 48%
    15:00 +21°C° 0.3 mm 1 m/s 693 mmHg 54%
    16:00 +19°C° 0.3 mm 1 m/s 693 mmHg 59%
    17:00 +18°C° 0.4 mm 1 m/s 693 mmHg 68%
    18:00 +15°C° 0.4 mm 1 m/s 692 mmHg 76%
    19:00 +13°C° 0.4 mm 0 m/s 692 mmHg 84%
    20:00 +12°C° 0 mm 0 m/s 692 mmHg 86%
    21:00 +12°C° 0 mm 1 m/s 692 mmHg 87%
    22:00 +10°C° 0 mm 1 m/s 692 mmHg 89%
    23:00 +10°C° 0 mm 1 m/s 692 mmHg 88%

    31 Mai, Vendredi

    Heure Température Précipitation Vent Pression Humidité
    00:00 +10°C° 0 mm 1 m/s 692 mmHg 88%
    01:00 +11°C° 0 mm 1 m/s 692 mmHg 88%
    02:00 +10°C° 0 mm 1 m/s 692 mmHg 88%
    03:00 +10°C° 0 mm 1 m/s 691 mmHg 89%
    04:00 +10°C° 0 mm 1 m/s 691 mmHg 89%
    05:00 +10°C° 0 mm 0 m/s 691 mmHg 86%
    06:00 +11°C° 0 mm 0 m/s 691 mmHg 82%
    07:00 +13°C° 0 mm 0 m/s 692 mmHg 78%
    08:00 +15°C° 0 mm 0 m/s 692 mmHg 70%
    09:00 +18°C° 0 mm 0 m/s 692 mmHg 62%
    10:00 +20°C° 0 mm 0 m/s 693 mmHg 53%
    11:00 +19°C° 0.8 mm 0 m/s 693 mmHg 59%
    12:00 +21°C° 0.8 mm 1 m/s 692 mmHg 64%
    13:00 +20°C° 0.8 mm 1 m/s 692 mmHg 70%
    14:00 +19°C° 1.3 mm 1 m/s 692 mmHg 72%
    15:00 +19°C° 1.3 mm 1 m/s 692 mmHg 75%
    16:00 +18°C° 1.3 mm 1 m/s 692 mmHg 78%
    17:00 +16°C° 0.2 mm 1 m/s 693 mmHg 78%
    18:00 +14°C° 0.2 mm 2 m/s 693 mmHg 78%
    19:00 +13°C° 0.2 mm 2 m/s 693 mmHg 79%
    20:00 +12°C° 0 mm 2 m/s 694 mmHg 79%
    21:00 +9°C° 0 mm 2 m/s 694 mmHg 79%
    22:00 +8°C° 0 mm 2 m/s 695 mmHg 79%
    23:00 +7°C° 0 mm 2 m/s 695 mmHg 81%

    1 Juin, Samedi

    Heure Température Précipitation Vent Pression Humidité
    00:00 +5°C° 0 mm 2 m/s 695 mmHg 83%
    01:00 +4°C° 0 mm 2 m/s 695 mmHg 85%
    02:00 +4°C° 0 mm 2 m/s 695 mmHg 85%
    03:00 +3°C° 0 mm 2 m/s 695 mmHg 84%
    04:00 +3°C° 0 mm 2 m/s 695 mmHg 83%
    05:00 +5°C° 0 mm 2 m/s 696 mmHg 75%
    06:00 +7°C° 0 mm 2 m/s 696 mmHg 67%
    07:00 +9°C° 0 mm 2 m/s 697 mmHg 59%
    08:00 +10°C° 0 mm 2 m/s 697 mmHg 50%
    09:00 +13°C° 0 mm 2 m/s 697 mmHg 41%
    10:00 +15°C° 0 mm 2 m/s 697 mmHg 32%
    11:00 +16°C° 0 mm 3 m/s 697 mmHg 30%
    12:00 +17°C° 0 mm 3 m/s 697 mmHg 27%
    13:00 +18°C° 0 mm 4 m/s 697 mmHg 25%
    14:00 +18°C° 0 mm 4 m/s 697 mmHg 26%
    15:00 +18°C° 0 mm 4 m/s 697 mmHg 26%
    16:00 +18°C° 0 mm 4 m/s 696 mmHg 27%
    17:00 +16°C° 0 mm 3 m/s 696 mmHg 37%
    18:00 +14°C° 0 mm 3 m/s 696 mmHg 46%
    19:00 +13°C° 0 mm 2 m/s 696 mmHg 56%
    20:00 +10°C° 0 mm 2 m/s 696 mmHg 58%
    21:00 +8°C° 0 mm 2 m/s 697 mmHg 61%
    22:00 +7°C° 0 mm 1 m/s 697 mmHg 64%
    23:00 +7°C° 0 mm 1 m/s 697 mmHg 66%
    Voir plus